Tracking 25710 objects as of 6-Jul-2022
HD Live streaming from Space Station
objects crossing your sky now

APRIZESAT 5

Track APRIZESAT 5 now!
10-day predictions
APRIZESAT 5 is classified as:


NORAD ID: 37792
Int'l Code: 2011-044E
Perigee: 610.0 km
Apogee: 689.6 km
Inclination: 98.3 °
Period: 97.6 minutes
Semi major axis: 7020 km
RCS: 0.107 m2 (medium)
Launch date: August 17, 2011
Source: United States (US)
Launch site: Orenburg, Russia (OREN)
aabbcc
Your satellite tracking list
Your tracking list is empty




NASA's NSSDC Master Catalog

Two Line Element Set (TLE):
1 37792U 11044E   22187.55548154  .00000266  00000-0  46219-4 0  9995
2 37792  98.3231  63.5457 0056679 304.2688  55.3161 14.75776248585819
Source of the keplerian elements: AFSPC